Location: Newark
(48.8604°N, 2.3376°E)
Time: 10:25:00
(UTC+00:00)

X-37B - Pass Details

Date: 30 September 2021
Orbit: 445 x 447 km, 45.0° (Epoch: 24 October)

Event Time Altitude Azimuth Distance (km) Brightness Sun altitude
Exits shadow 03:50:00 41° 168° (SSE) 657 1.6 -20.0°
Drops below altitude 10° 03:53:01 10° 114° (ESE) 1,565 4.3 -19.6°
Enters shadow 04:48:30 -71° 295° (WNW) 12,497 8.1 -10.7°
